GW7255 Weather Reports


time (UTC)temp
F
wind
direction
speed
knots
gust
knots
rain 1hr
in
rain 24hr
in
rain mn
in
humidity
%
barometer
mb
20260906211514 92 119 16.5 27.8 0.00 0.00 0.00 31 1002.4
20260906210008 93 360 20.0 27.8 0.00 0.00 0.00 29 1002.6
20260906204551 94 147 17.4 26.9 0.00 0.00 0.00 29 1002.7
20260906203013 94 360 20.0 28.7 0.00 0.00 0.00 29 1002.6
20260906201520 94 360 17.4 24.3 0.00 0.00 0.00 29 1002.8
20260906200022 93 117 15.6 23.5 0.00 0.00 0.00 30 1002.8
20260906194513 92 103 15.6 20.0 0.00 0.00 0.00 31 1003.0
20260906193102 95 360 17.4 21.7 0.00 0.00 0.00 29 1002.9
20260906191520 96 360 10.4 17.4 0.00 0.00 0.00 28 1002.8
20260906190019 96 136 10.4 17.4 0.00 0.00 0.00 28 1003.0
20260906184504 96 360 7.0 16.5 0.00 0.00 0.00 28 1003.1
20260906183054 96 82 7.0 13.0 0.00 0.00 0.00 27 1003.4
20260906181519 96 93 7.8 13.9 0.00 0.00 0.00 27 1003.6
20260906180106 95 360 7.8 10.4 0.00 0.00 0.00 29 1003.8
20260906174510 93 55 2.6 6.1 0.00 0.00 0.00 31 1004.0
20260906173035 92 58 6.1 10.4 0.00 0.00 0.00 33 1004.2
20260906171516 90 47 6.1 9.6 0.00 0.00 0.00 34 1004.6
20260906170115 88 15 2.6 10.4 0.00 0.00 0.00 36 1004.8
20260906164519 88 71 7.8 10.4 0.00 0.00 0.00 36 1004.9
20260906163110 89 53 6.1 13.0 0.00 0.00 0.00 36 1005.1
20260906161524 87 55 2.6 8.7 0.00 0.00 0.00 38 1005.2
20260906160100 87 70 3.5 7.8 0.00 0.00 0.00 39 1005.4
20260906160001 87 40 2.6 7.0 0.00 0.00 0.00 39 1005.4
20260906154520 86 33 2.6 7.8 0.00 0.00 0.00 40 1005.3
20260906153003 85 138 0.9 4.3 0.00 0.00 0.00 41 1005.4
20260906151518 84 144 2.6 4.3 0.00 0.00 0.00 43 1005.2
20260906150003 81 142 0.0 3.5 0.00 0.00 0.00 45 1005.4
20260906144526 79 71 0.0 3.5 0.00 0.00 0.00 46 1005.6
20260906143007 77 63 0.0 2.6 0.00 0.00 0.00 49 1005.7
20260906141517 75 66 0.9 3.5 0.00 0.00 0.00 51 1005.8
20260906134513 68 65 0.0 2.6 0.00 0.00 0.00 70 1005.8
20260906133117 66 360 0.0 0.0 0.00 0.00 0.00 70 1005.8
20260906131520 65 59 0.0 0.0 0.00 0.00 0.00 70 1005.8
20260906130032 65 59 0.0 3.5 0.00 0.00 0.00 70 1005.7
20260906124510 64 60 0.0 2.6 0.00 0.00 0.00 71 1005.3
20260906123133 64 59 0.0 0.9 0.00 0.00 0.00 72 1005.2
20260906121518 64 59 1.7 5.2 0.00 0.00 0.00 71 1005.3
20260906120058 66 140 2.6 3.5 0.00 0.00 0.00 67 1005.0
20260906114535 66 140 1.7 2.6 0.00 0.00 0.00 69 1004.9
20260906113006 66 138 2.6 3.5 0.00 0.00 0.00 66 1004.7
20260906111528 67 137 1.7 3.5 0.00 0.00 0.00 67 1004.9
20260906104517 65 130 1.7 3.5 0.00 0.00 0.00 72 1004.9
20260906103058 66 130 0.9 3.5 0.00 0.00 0.00 69 1004.9
20260906101522 66 129 1.7 3.5 0.00 0.00 0.00 69 1004.8
20260906100035 66 130 0.0 3.5 0.00 0.00 0.00 69 1004.7
20260906094509 66 125 1.7 3.5 0.00 0.00 0.00 66 1004.5
20260906093134 67 360 0.0 5.2 0.00 0.00 0.00 65 1004.5
20260906091523 66 278 6.1 9.6 0.00 0.00 0.00 67 1004.2
20260906090014 68 111 0.0 1.7 0.00 0.00 0.00 66 1004.2
20260906084510 68 109 0.0 2.6 0.00 0.00 0.00 65 1003.8
20260906083053 68 360 0.0 2.6 0.00 0.00 0.00 64 1004.3
20260906081519 68 107 0.0 0.9 0.00 0.00 0.00 64 1004.6
20260906080100 68 109 0.0 1.7 0.00 0.00 0.00 62 1004.5
20260906074517 69 360 3.5 9.6 0.00 0.00 0.00 59 1004.6
20260906073001 70 360 0.9 2.6 0.00 0.00 0.00 59 1004.3
20260906071519 71 360 0.0 1.7 0.00 0.00 0.00 54 1004.6
20260906070006 71 360 0.9 2.6 0.00 0.00 0.00 56 1004.4
20260906064533 71 360 0.9 2.6 0.00 0.00 0.00 56 1004.3
20260906063057 73 360 2.6 4.3 0.00 0.00 0.00 53 1004.5
20260906061520 73 360 0.0 0.0 0.00 0.00 0.00 53 1004.4
20260906060028 73 360 2.6 4.3 0.00 0.00 0.00 52 1004.5
20260906054511 74 153 2.6 7.8 0.00 0.00 0.00 51 1004.6
20260906053100 74 360 6.1 8.7 0.00 0.00 0.00 51 1004.9
20260906051517 73 159 4.3 7.0 0.00 0.00 0.00 52 1005.0
20260906050023 75 145 4.3 6.1 0.00 0.00 0.00 49 1004.7
20260906044505 76 105 4.3 6.1 0.00 0.00 0.00 49 1004.7
20260906043050 76 88 3.5 9.6 0.00 0.00 0.00 50 1004.8
20260906041516 76 360 8.7 16.5 0.00 0.00 0.00 47 1004.9
20260906040003 78 360 3.5 7.8 0.00 0.00 0.00 44 1004.8
20260906034526 79 360 4.3 7.0 0.00 0.00 0.00 44 1004.7
20260906033104 80 360 6.1 7.8 0.00 0.00 0.00 42 1004.6
20260906031515 81 360 4.3 7.0 0.00 0.00 0.00 40 1004.7
20260906024523 83 155 3.5 7.0 0.00 0.00 0.00 37 1004.1
20260906023003 84 148 3.5 7.0 0.00 0.00 0.00 35 1003.8
20260906021528 85 360 4.3 8.7 0.00 0.00 0.00 34 1003.7
20260906014513 85 360 5.2 7.8 0.00 0.00 0.00 31 1003.7
20260906013101 86 156 6.1 12.2 0.00 0.00 0.00 30 1003.7
20260906011518 87 360 8.7 13.0 0.00 0.00 0.00 30 1003.7
20260906010059 88 360 8.7 11.3 0.00 0.00 0.00 30 1003.6
20260906004521 89 360 8.7 12.2 0.00 0.00 0.00 28 1003.7
20260906003028 90 145 7.0 13.0 0.00 0.00 0.00 27 1003.7
20260906001556 91 360 8.7 17.4 0.00 0.00 0.00 26 1003.6
20260906000007 91 360 12.2 14.8 0.00 0.00 0.00 27 1003.2
20260905234528 91 360 10.4 13.9 0.00 0.00 0.00 28 1003.2
20260905233100 92 360 7.8 14.8 0.00 0.00 0.00 27 1003.2
20260905231520 92 360 9.6 12.2 0.00 0.00 0.00 25 1003.1
20260905230029 94 360 9.6 16.5 0.00 0.00 0.00 24 1002.9
20260905224615 94 130 10.4 14.8 0.00 0.00 0.00 24 1002.8
20260905223021 93 360 12.2 13.9 0.00 0.00 0.00 25 1002.7
20260905221515 94 360 9.6 19.1 0.00 0.00 0.00 24 1002.6
20260905220012 95 360 13.9 20.9 0.00 0.00 0.00 24 1002.4
20260905214544 95 72 9.6 14.8 0.00 0.00 0.00 23 1002.8
20260905213103 96 67 9.6 14.8 0.00 0.00 0.00 22 1002.7